SAUDISAT 1C (SO-50)

Last updated on Sun Jan 18 2026 00:03:07 GMT+0000 (Coordinated Universal Time)

1 27607U 02058C 26017.01867770 .00000976 00000+0 13405-3 0 9996 2 27607 64.5508 236.5469 0073609 290.0175 69.3016 14.82551998242045
UTC large
Height (km)
Speed (km/s)
/
Latitude / Longitude
Inclination (degrees)
Orbital Period (minutes)
Azimuth
Elevation
Range (km)
Doppler Factor

Next 0 passes for location: London (51.5072 / 0.1276)

Sorry there are no passes over London.